📊 Raw Sensor Data
Showing records 39526 to 39550 of 84,947 total
| ID | Distance (ft) | Battery V | Battery A | Int Temp (°F) | Int Humid (%) | Ext Temp (°F) | Solar V | RSSI | SNR | Time Stamp |
|---|---|---|---|---|---|---|---|---|---|---|
| 45434 | 15.4 | 4.08 | 0 | 85 | 42 | 79 | 5.10 | -67 | 8 | 07/05/2025 01:00 PM |
| 45433 | 15.4 | 3.88 | 0 | 83 | 42 | 80 | 5.10 | -67 | 8 | 07/05/2025 12:45 PM |
| 45432 | 15.4 | 3.81 | 0 | 82 | 42 | 79 | 5.10 | -67 | 7 | 07/05/2025 12:30 PM |
| 45431 | 15.4 | 3.82 | 0 | 80 | 42 | 77 | 5.10 | -67 | 8 | 07/05/2025 12:15 PM |
| 45430 | 15.4 | 4.02 | 0 | 79 | 42 | 76 | 5.10 | -66 | 8 | 07/05/2025 12:00 PM |
| 45429 | 15.4 | 3.81 | 0 | 78 | 42 | 76 | 5.10 | -66 | 8 | 07/05/2025 11:45 AM |
| 45428 | 15.4 | 3.83 | 0 | 76 | 42 | 74 | 5.10 | -66 | 8 | 07/05/2025 11:30 AM |
| 45427 | 15.4 | 3.81 | 0 | 74 | 42 | 76 | 5.10 | -66 | 8 | 07/05/2025 11:15 AM |
| 45426 | 15.4 | 3.81 | 0 | 74 | 42 | 71 | 5.10 | -67 | 8 | 07/05/2025 11:00 AM |
| 45425 | 15.4 | 3.81 | 0 | 72 | 42 | 71 | 5.10 | -66 | 7 | 07/05/2025 10:45 AM |
| 45424 | 15.4 | 3.82 | 0 | 71 | 43 | 69 | 5.10 | -67 | 8 | 07/05/2025 10:30 AM |
| 45423 | 15.4 | 3.82 | 0 | 70 | 43 | 68 | 5.10 | -66 | 8 | 07/05/2025 10:15 AM |
| 45422 | 15.4 | 3.93 | 0 | 70 | 43 | 68 | 5.10 | -68 | 8 | 07/05/2025 10:00 AM |
| 45421 | 15.4 | 3.82 | 0 | 69 | 42 | 68 | 5.10 | -67 | 8 | 07/05/2025 09:45 AM |
| 45420 | 15.4 | 3.82 | 0 | 68 | 43 | 65 | 5.10 | -68 | 7 | 07/05/2025 09:30 AM |
| 45419 | 15.4 | 3.82 | 0 | 66 | 43 | 68 | 5.10 | -67 | 8 | 07/05/2025 09:15 AM |
| 45418 | 15.4 | 3.82 | 0 | 66 | 43 | 66 | 5.10 | -66 | 8 | 07/05/2025 09:00 AM |
| 45417 | 15.4 | 3.82 | 0 | 65 | 43 | 65 | 5.10 | -67 | 8 | 07/05/2025 08:45 AM |
| 45416 | 15.4 | 4.07 | 0 | 64 | 43 | 69 | 5.10 | -67 | 9 | 07/05/2025 08:30 AM |
| 45415 | 15.4 | 3.88 | 0 | 62 | 43 | 64 | 5.10 | -68 | 8 | 07/05/2025 08:00 AM |
| 45414 | 15.4 | 3.81 | 0 | 61 | 42 | 63 | 5.10 | -66 | 8 | 07/05/2025 07:45 AM |
| 45413 | 15.4 | 4.00 | 33 | 60 | 41 | 63 | 4.50 | -68 | 8 | 07/05/2025 07:30 AM |
| 45412 | 15.3 | 3.85 | 0 | 58 | 41 | 69 | 4.50 | -68 | 8 | 07/05/2025 07:15 AM |
| 45411 | 15.3 | 3.93 | 9 | 55 | 41 | 62 | 4.50 | -68 | 8 | 07/05/2025 07:00 AM |
| 45410 | 15.2 | 3.91 | 5 | 52 | 41 | 59 | 4.50 | -69 | 8 | 07/05/2025 06:45 AM |